Weather History for Kirksville, MO

Change the Weather History Date:

Friday, April 18, 2014

  Actual Average Record
Temperature  
Mean Temperature 48 °F 53 °F  
Max Temperature 67 °F 64 °F 85 °F (1925)
Min Temperature 29 °F 42 °F 21 °F (1983)
Degree Days  
Heating Degree Days 17 13  
Month to date heating degree days 316 276  
Since 1 July heating degree days 6188 5563  
Cooling Degree Days 0 0  
Month to date cooling degree days 1 0  
Year to date cooling degree days 1 0  
Moisture  
Dew Point 33 °F    
Average Humidity 62    
Maximum Humidity 92    
Minimum Humidity 31    
Precipitation  
Precipitation 0.00 in 0.16 in 1.65 in (1970)
Month to date precipitation 1.25 1.89  
Year to date precipitation 5.87 7.24  
Sea Level Pressure  
Sea Level Pressure 30.30 in    
Wind  
Wind Speed 6 mph (ENE)    
Max Wind Speed 12 mph    
Max Gust Speed 16 mph    
Visibility 7 miles    
Events Fog    
T = Trace of Precipitation, MM = Missing Value Source: NWS Daily Summary

Daily Weather History Graph

Daily Weather History Graph

Search for Another Location

Airport:

Trip Planner

Search our weather history database for the weather conditions in past years. The results will help you decide how hot, cold, wet, or windy it might be!

Date:

Astronomy

Apr. 18, 2014 Rise Set
Actual Time 6:27 AM CDT 7:51 PM CDT
Civil Twilight 5:59 AM CDT 8:20 PM CDT
Nautical Twilight 5:25 AM CDT 8:54 PM CDT
Astronomical Twilight 4:49 AM CDT 9:30 PM CDT
Moon 11:37 PM CDT (4/18) 8:50 AM CDT (4/18)
Length of Visible Light 14h 20m
Length of Day
13h 24m
Waning Gibbous, 87% of the Moon is Illuminated
Apr 18
Waning Gibbous
Apr 22
Last Quarter
Apr 29
New
May 6
First Quarter
May 14
Full

Hourly Weather History & Observations

Time (CDT) Temp. Windchill Dew Point Humidity Pressure Visibility Wind Dir Wind Speed Gust Speed Precip Events Conditions
12:55 AM 37.0 °F 34.5 °F 32.0 °F 82% 30.31 in 10.0 mi NNW 3.5 mph - N/A   Clear
1:55 AM 30.0 °F 25.2 °F 28.0 °F 92% 30.32 in 8.0 mi NW 4.6 mph - N/A   Clear
2:55 AM 30.9 °F 27.5 °F 28.9 °F 92% 30.32 in 6.0 mi NW 3.5 mph - N/A   Clear
3:55 AM 30.9 °F 27.5 °F 28.9 °F 92% 30.32 in 7.0 mi North 3.5 mph - N/A   Clear
4:39 AM 30.9 °F - 28.9 °F 92% 30.30 in 1.8 mi Calm Calm - N/A   Clear
4:48 AM 28.9 °F - 28.9 °F 100% 30.30 in 0.5 mi Calm Calm - N/A Fog Light Freezing Fog
4:55 AM 30.9 °F - 28.9 °F 92% 30.33 in 0.2 mi Calm Calm - N/A Fog Light Freezing Fog
5:02 AM 30.9 °F - 28.9 °F 92% 30.30 in 1.0 mi Calm Calm - N/A   Clear
5:11 AM 30.0 °F 26.5 °F 28.9 °F 96% 30.30 in 0.5 mi North 3.5 mph - N/A Fog Light Freezing Fog
5:24 AM 28.9 °F 25.2 °F 27.0 °F 92% 30.31 in 1.0 mi NNE 3.5 mph - N/A   Clear
5:30 AM 30.0 °F 25.2 °F 28.0 °F 92% 30.31 in 3.0 mi NNE 4.6 mph - N/A   Clear
5:55 AM 33.1 °F 27.7 °F 30.9 °F 92% 30.34 in 7.0 mi NE 5.8 mph - N/A   Clear
6:55 AM 32.0 °F 26.4 °F 28.9 °F 88% 30.35 in 6.0 mi NE 5.8 mph - N/A   Clear
7:55 AM 39.0 °F 34.0 °F 34.0 °F 82% 30.37 in 6.0 mi ENE 6.9 mph - N/A   Haze
8:55 AM 46.0 °F 43.9 °F 36.0 °F 68% 30.38 in 10.0 mi ENE 4.6 mph - N/A   Clear
9:55 AM 51.1 °F - 36.0 °F 56% 30.37 in 10.0 mi East 5.8 mph - N/A   Clear
10:55 AM 54.0 °F - 36.0 °F 51% 30.37 in 10.0 mi ENE 6.9 mph - N/A   Clear
11:55 AM 55.9 °F - 36.0 °F 47% 30.36 in 10.0 mi Variable 3.5 mph - N/A   Clear
12:55 PM 60.1 °F - 36.0 °F 41% 30.34 in 10.0 mi ESE 8.1 mph - N/A   Clear
1:55 PM 62.1 °F - 36.0 °F 38% 30.33 in 10.0 mi Variable 6.9 mph - N/A   Clear
2:55 PM 64.0 °F - 36.0 °F 35% 30.30 in 10.0 mi SE 6.9 mph - N/A   Clear
3:55 PM 64.9 °F - 34.0 °F 32% 30.28 in 10.0 mi Variable 3.5 mph - N/A   Clear
4:55 PM 66.0 °F - 35.1 °F 32% 30.26 in 10.0 mi SSE 6.9 mph - N/A   Clear
5:55 PM 66.0 °F - 36.0 °F 33% 30.24 in 10.0 mi ESE 8.1 mph - N/A   Clear
6:55 PM 64.0 °F - 37.0 °F 37% 30.23 in 10.0 mi ESE 8.1 mph - N/A   Clear
7:55 PM 57.9 °F - 37.0 °F 46% 30.22 in 10.0 mi ESE 5.8 mph - N/A   Clear
8:55 PM 55.9 °F - 36.0 °F 47% 30.23 in 10.0 mi East 5.8 mph - N/A   Clear
9:55 PM 53.1 °F - 35.1 °F 50% 30.24 in 10.0 mi East 5.8 mph - N/A   Clear
10:55 PM 52.0 °F - 35.1 °F 53% 30.25 in 10.0 mi East 5.8 mph - N/A   Clear
11:55 PM 50.0 °F - 34.0 °F 54% 30.25 in 10.0 mi ESE 6.9 mph - N/A   Clear